When you browse on this site, cookies collect data to enhance your experience and personalize the content and advertising you see.
Visit our Privacy Policy to learn more. By continuing to use the site, you agree to this use of cookies and data.
  • In Romania
  • List of Countries
  • For 7 days
  • Water Temperature
  • Satellite Maps
  • Weather Map
  • Weather Widgets
  • user-avatar
    Login

    Hourly Weather Kirkuk

    Today, 19 November, Monday

    Time Temperature Precipitation Wind Pressure Humidity
    00:00 +15°C° 0 mm 1 mps 735 mmHg 56%
    01:00 +15°C° 0 mm 1 mps 734 mmHg 56%
    02:00 +15°C° 0 mm 1 mps 734 mmHg 56%
    03:00 +14°C° 0 mm 1 mps 734 mmHg 57%
    04:00 +14°C° 0 mm 1 mps 734 mmHg 57%
    05:00 +14°C° 0 mm 1 mps 734 mmHg 56%
    06:00 +14°C° 0 mm 1 mps 734 mmHg 56%
    07:00 +15°C° 0 mm 1 mps 734 mmHg 52%
    08:00 +16°C° 0 mm 1 mps 735 mmHg 48%
    09:00 +18°C° 0 mm 1 mps 735 mmHg 43%
    10:00 +18°C° 0 mm 2 mps 735 mmHg 39%
    11:00 +19°C° 0 mm 2 mps 735 mmHg 35%
    12:00 +20°C° 0 mm 2 mps 735 mmHg 31%
    13:00 +20°C° 0 mm 2 mps 734 mmHg 30%
    14:00 +20°C° 0 mm 2 mps 734 mmHg 29%
    15:00 +21°C° 0 mm 3 mps 734 mmHg 28%
    16:00 +20°C° 0 mm 3 mps 734 mmHg 31%
    17:00 +19°C° 0 mm 2 mps 734 mmHg 34%
    18:00 +18°C° 0 mm 2 mps 734 mmHg 37%
    19:00 +18°C° 0 mm 2 mps 734 mmHg 38%
    20:00 +17°C° 0 mm 2 mps 734 mmHg 40%
    21:00 +17°C° 0 mm 2 mps 734 mmHg 42%
    22:00 +16°C° 0 mm 2 mps 734 mmHg 43%
    23:00 +16°C° 0 mm 2 mps 734 mmHg 44%

    Tomorrow, 20 November, Tuesday

    Time Temperature Precipitation Wind Pressure Humidity
    00:00 +16°C° 0 mm 2 mps 734 mmHg 45%
    01:00 +16°C° 0 mm 2 mps 734 mmHg 45%
    02:00 +15°C° 0 mm 2 mps 734 mmHg 46%
    03:00 +15°C° 0 mm 2 mps 734 mmHg 46%
    04:00 +15°C° 0 mm 2 mps 734 mmHg 46%
    05:00 +14°C° 0 mm 2 mps 734 mmHg 46%
    06:00 +14°C° 0 mm 2 mps 734 mmHg 46%
    07:00 +15°C° 0 mm 2 mps 734 mmHg 42%
    08:00 +16°C° 0 mm 2 mps 735 mmHg 39%
    09:00 +18°C° 0 mm 2 mps 735 mmHg 35%
    10:00 +19°C° 0 mm 2 mps 735 mmHg 32%
    11:00 +20°C° 0 mm 2 mps 735 mmHg 29%
    12:00 +21°C° 0 mm 2 mps 734 mmHg 26%
    13:00 +21°C° 0 mm 3 mps 734 mmHg 26%
    14:00 +21°C° 0 mm 3 mps 734 mmHg 26%
    15:00 +22°C° 0 mm 3 mps 734 mmHg 26%
    16:00 +21°C° 0 mm 3 mps 734 mmHg 30%
    17:00 +19°C° 0 mm 3 mps 734 mmHg 33%
    18:00 +18°C° 0 mm 2 mps 734 mmHg 37%
    19:00 +18°C° 0 mm 2 mps 734 mmHg 40%
    20:00 +18°C° 0 mm 1 mps 734 mmHg 42%
    21:00 +16°C° 0 mm 1 mps 734 mmHg 44%
    22:00 +16°C° 0 mm 1 mps 734 mmHg 46%
    23:00 +16°C° 0 mm 1 mps 734 mmHg 47%

    Day after tomorrow, 21 November, Wednesday

    Time Temperature Precipitation Wind Pressure Humidity
    00:00 +15°C° 0 mm 1 mps 734 mmHg 49%
    01:00 +14°C° 0 mm 0 mps 734 mmHg 50%
    02:00 +14°C° 0 mm 0 mps 734 mmHg 51%
    03:00 +13°C° 0 mm 0 mps 734 mmHg 53%
    04:00 +13°C° 0 mm 0 mps 733 mmHg 53%
    05:00 +13°C° 0 mm 0 mps 733 mmHg 54%
    06:00 +12°C° 0 mm 0 mps 733 mmHg 54%
    07:00 +15°C° 0 mm 1 mps 733 mmHg 50%
    08:00 +16°C° 0 mm 1 mps 734 mmHg 45%
    09:00 +18°C° 0 mm 1 mps 734 mmHg 41%
    10:00 +19°C° 0 mm 1 mps 734 mmHg 39%
    11:00 +19°C° 0 mm 2 mps 734 mmHg 37%
    12:00 +20°C° 0 mm 2 mps 733 mmHg 35%
    13:00 +20°C° 0 mm 2 mps 733 mmHg 34%
    14:00 +20°C° 0 mm 2 mps 733 mmHg 34%
    15:00 +21°C° 0 mm 2 mps 733 mmHg 34%
    16:00 +20°C° 0 mm 2 mps 733 mmHg 37%
    17:00 +20°C° 0 mm 1 mps 733 mmHg 41%
    18:00 +19°C° 0 mm 1 mps 733 mmHg 45%
    19:00 +19°C° 0 mm 1 mps 733 mmHg 46%
    20:00 +19°C° 0 mm 1 mps 733 mmHg 46%
    21:00 +19°C° 0 mm 1 mps 733 mmHg 47%
    22:00 +17°C° 0 mm 2 mps 733 mmHg 48%
    23:00 +17°C° 0 mm 2 mps 733 mmHg 48%

    22 November, Thursday

    Time Temperature Precipitation Wind Pressure Humidity
    00:00 +17°C° 0 mm 2 mps 733 mmHg 49%
    01:00 +17°C° 0 mm 2 mps 732 mmHg 49%
    02:00 +17°C° 0 mm 2 mps 732 mmHg 50%
    03:00 +16°C° 0 mm 2 mps 732 mmHg 50%
    04:00 +16°C° 0 mm 2 mps 732 mmHg 50%
    05:00 +16°C° 0 mm 2 mps 732 mmHg 50%
    06:00 +16°C° 0 mm 3 mps 732 mmHg 50%
    07:00 +17°C° 0 mm 3 mps 732 mmHg 47%
    08:00 +18°C° 0 mm 4 mps 732 mmHg 44%
    09:00 +17°C° 0 mm 5 mps 733 mmHg 41%
    10:00 +19°C° 0 mm 5 mps 732 mmHg 40%
    11:00 +20°C° 0 mm 6 mps 732 mmHg 38%
    12:00 +21°C° 0 mm 6 mps 732 mmHg 36%
    13:00 +21°C° 0 mm 6 mps 731 mmHg 38%
    14:00 +21°C° 0 mm 6 mps 731 mmHg 39%
    15:00 +21°C° 0 mm 5 mps 731 mmHg 40%
    16:00 +20°C° 0 mm 5 mps 731 mmHg 42%
    17:00 +20°C° 0 mm 5 mps 731 mmHg 44%
    18:00 +19°C° 0 mm 4 mps 731 mmHg 46%
    19:00 +19°C° 0.1 mm 4 mps 731 mmHg 48%
    20:00 +18°C° 0.1 mm 4 mps 731 mmHg 50%
    21:00 +18°C° 0.1 mm 4 mps 731 mmHg 51%
    22:00 +18°C° 0 mm 4 mps 731 mmHg 52%
    23:00 +18°C° 0 mm 3 mps 731 mmHg 52%

    23 November, Friday

    Time Temperature Precipitation Wind Pressure Humidity
    00:00 +18°C° 0 mm 3 mps 731 mmHg 52%
    01:00 +17°C° 0 mm 3 mps 731 mmHg 53%
    02:00 +17°C° 0 mm 3 mps 730 mmHg 53%
    03:00 +17°C° 0 mm 3 mps 730 mmHg 53%
    04:00 +17°C° 0 mm 3 mps 730 mmHg 53%
    05:00 +16°C° 0 mm 3 mps 730 mmHg 52%
    06:00 +16°C° 0 mm 3 mps 731 mmHg 52%
    07:00 +17°C° 0.2 mm 4 mps 731 mmHg 54%
    08:00 +17°C° 0.2 mm 4 mps 731 mmHg 55%
    09:00 +16°C° 0.2 mm 5 mps 731 mmHg 56%
    10:00 +18°C° 0.1 mm 4 mps 731 mmHg 54%
    11:00 +18°C° 0.1 mm 4 mps 731 mmHg 51%
    12:00 +19°C° 0.1 mm 4 mps 731 mmHg 49%
    13:00 +19°C° 0.1 mm 4 mps 731 mmHg 48%
    14:00 +19°C° 0.1 mm 3 mps 731 mmHg 47%
    15:00 +19°C° 0.1 mm 3 mps 730 mmHg 46%
    16:00 +19°C° 0 mm 3 mps 731 mmHg 48%
    17:00 +18°C° 0 mm 3 mps 731 mmHg 49%
    18:00 +18°C° 0 mm 3 mps 731 mmHg 50%
    19:00 +17°C° 0 mm 3 mps 732 mmHg 53%
    20:00 +17°C° 0 mm 3 mps 732 mmHg 56%
    21:00 +17°C° 0 mm 3 mps 733 mmHg 59%
    22:00 +16°C° 0.1 mm 3 mps 733 mmHg 63%
    23:00 +16°C° 0.1 mm 3 mps 733 mmHg 68%

    24 November, Saturday

    Time Temperature Precipitation Wind Pressure Humidity
    00:00 +14°C° 0.1 mm 3 mps 733 mmHg 72%
    01:00 +14°C° 0.1 mm 3 mps 733 mmHg 73%
    02:00 +14°C° 0.1 mm 3 mps 733 mmHg 73%
    03:00 +15°C° 0.1 mm 2 mps 733 mmHg 74%
    04:00 +15°C° 0.1 mm 2 mps 733 mmHg 73%
    05:00 +15°C° 0.1 mm 2 mps 734 mmHg 72%
    06:00 +15°C° 0.1 mm 2 mps 734 mmHg 71%
    07:00 +15°C° 0.1 mm 2 mps 734 mmHg 66%
    08:00 +16°C° 0.1 mm 2 mps 735 mmHg 61%
    09:00 +17°C° 0.1 mm 3 mps 735 mmHg 56%
    10:00 +18°C° 0.1 mm 3 mps 735 mmHg 52%
    11:00 +19°C° 0.1 mm 4 mps 735 mmHg 48%
    12:00 +20°C° 0.1 mm 4 mps 735 mmHg 44%
    13:00 +20°C° 0 mm 4 mps 735 mmHg 45%
    14:00 +20°C° 0 mm 5 mps 734 mmHg 45%
    15:00 +20°C° 0 mm 5 mps 734 mmHg 46%
    16:00 +19°C° 0.2 mm 4 mps 734 mmHg 51%
    17:00 +18°C° 0.2 mm 4 mps 734 mmHg 55%
    18:00 +17°C° 0.2 mm 4 mps 733 mmHg 60%
    19:00 +17°C° 0.3 mm 4 mps 733 mmHg 59%
    20:00 +17°C° 0.3 mm 4 mps 733 mmHg 57%
    21:00 +17°C° 0.3 mm 4 mps 733 mmHg 56%
    22:00 +17°C° 0.9 mm 4 mps 733 mmHg 59%
    23:00 +16°C° 0.9 mm 5 mps 733 mmHg 61%
    Show more